period_start,C,m1,H,J0,J1,J2,J3,J4,J5,JA,JB,JC,JD,JJ,JK,JN,#
2017-09-06 00:04:19,0.00,0.32,0.00,24.70,28.20,30.60,13.59,44.26,1007.35,2028.99,3403.94,3001.00,3419.99,599.94,587.14,35.42,0000 0000 0000 0000 000000
2017-09-06 00:09:21,0.00,0.32,0.00,24.67,28.20,30.59,13.57,44.22,1007.36,2028.99,3403.76,3001.00,3419.99,599.40,586.70,35.47,0000 0000 0000 0000 000000
2017-09-06 00:14:22,0.01,0.32,0.00,24.66,28.20,30.60,13.71,44.34,1007.36,2028.99,3403.14,3001.00,3419.95,600.10,587.48,35.52,0000 0000 0000 0000 000000
2017-09-06 00:19:23,0.01,0.32,0.00,24.69,28.18,30.60,13.71,44.23,1007.37,2028.99,3403.00,3000.98,3419.35,600.28,587.43,35.57,0000 0000 0000 0000 000000
2017-09-06 00:24:24,0.00,0.32,0.00,24.68,28.17,30.58,13.62,44.18,1007.35,2028.99,3402.94,3000.93,3419.03,599.75,586.89,35.62,0000 0000 0000 0000 000000
2017-09-06 00:29:26,0.02,0.32,0.00,24.69,28.17,30.57,13.74,44.22,1007.36,2028.99,3402.43,3000.73,3419.00,600.44,587.71,35.67,0000 0000 0000 0000 000000
2017-09-06 00:34:27,0.01,0.32,0.00,24.67,28.17,30.57,13.70,44.20,1007.40,2029.00,3402.07,3000.39,3419.00,599.95,587.27,35.72,0000 0000 0000 0000 000000
2017-09-06 00:39:28,0.00,0.32,0.00,24.66,28.17,30.58,13.65,44.22,1007.42,2029.00,3402.00,3000.08,3418.97,600.01,587.43,35.77,0000 0000 0000 0000 000000
2017-09-06 00:44:30,0.00,0.32,0.00,24.67,28.17,30.57,13.68,44.27,1007.39,2029.00,3401.97,3000.04,3418.77,599.94,587.27,35.82,0000 0000 0000 0000 000000
2017-09-06 00:49:31,0.01,0.32,0.00,24.65,28.17,30.55,13.70,44.25,1007.42,2029.01,3401.93,3000.01,3418.20,600.19,587.60,35.87,0000 0000 0000 0000 000000
2017-09-06 00:54:32,0.01,0.32,0.00,24.64,28.17,30.57,13.60,44.35,1007.47,2029.00,3401.53,3000.00,3418.03,599.59,587.16,35.92,0000 0000 0000 0000 000000
2017-09-06 00:59:33,0.00,0.32,0.00,24.66,28.17,30.57,13.58,44.23,1007.48,2029.00,3401.08,3000.00,3418.00,599.52,587.00,35.97,0000 0000 0000 0000 000000
2017-09-06 01:04:34,0.00,0.32,0.00,24.67,28.15,30.55,13.68,44.14,1007.61,2029.01,3401.00,3000.00,3418.00,599.82,587.28,36.03,0000 0000 0000 0000 000000
2017-09-06 01:09:35,0.00,0.32,0.00,24.66,28.15,30.57,13.68,44.25,1007.71,2029.01,3401.00,2999.99,3418.00,600.04,587.48,36.08,0000 0000 0000 0000 000000
2017-09-06 01:14:37,0.00,0.32,0.00,24.66,28.15,30.56,13.71,44.24,1007.75,2029.00,3400.95,2999.99,3417.91,600.17,587.72,36.13,0000 0000 0000 0000 000000
2017-09-06 01:19:38,0.02,0.32,0.00,24.65,28.15,30.55,13.63,44.27,1007.72,2029.00,3400.68,2999.92,3417.43,599.73,587.36,36.18,0000 0000 0000 0000 000000
2017-09-06 01:24:39,0.01,0.32,0.00,24.65,28.15,30.56,13.75,44.21,1007.77,2029.01,3400.09,2999.78,3417.13,600.26,587.70,36.23,0000 0000 0000 0000 000000
2017-09-06 01:29:41,0.01,0.32,0.00,24.66,28.15,30.55,13.70,44.23,1007.83,2029.01,3400.00,2999.33,3417.02,600.05,587.56,36.28,0000 0000 0000 0000 000000
2017-09-06 01:34:42,0.00,0.32,0.00,24.66,28.14,30.53,13.67,44.17,1007.83,2029.01,3399.87,2999.04,3417.00,600.12,587.76,36.33,0000 0000 0000 0000 000000
2017-09-06 01:39:44,0.01,0.32,0.00,24.63,28.13,30.54,13.69,44.21,1007.83,2029.01,3399.25,2999.01,3416.84,600.22,587.87,36.38,0000 0000 0000 0000 000000
2017-09-06 01:44:45,0.01,0.32,0.00,24.64,28.12,30.54,13.61,44.21,1007.82,2029.02,3399.01,2998.99,3416.25,599.73,587.30,36.43,0000 0000 0000 0000 000000
2017-09-06 01:49:46,0.00,0.32,0.00,24.66,28.12,30.53,13.74,44.22,1007.83,2029.01,3398.98,2998.97,3416.01,600.24,587.87,36.48,0000 0000 0000 0000 000000
2017-09-06 01:54:47,0.02,0.33,0.00,24.64,28.12,30.52,13.69,44.16,1007.83,2029.00,3398.34,2998.54,3415.98,600.12,587.82,36.53,0000 0000 0000 0000 000000
2017-09-06 01:59:48,0.00,0.33,0.00,24.62,28.12,30.54,13.69,44.15,1007.83,2029.01,3398.01,2998.22,3415.87,599.91,587.69,36.58,0000 0000 0000 0000 000000
2017-09-06 02:04:50,0.02,0.33,0.00,24.63,28.12,30.53,13.64,44.16,1007.83,2029.03,3397.98,2998.04,3415.21,599.86,587.52,36.63,0000 0000 0000 0000 000000
2017-09-06 02:09:51,0.01,0.33,0.00,24.63,28.12,30.52,13.67,44.22,1007.83,2029.02,3397.53,2998.00,3415.01,600.24,587.89,36.68,0000 0000 0000 0000 000000
2017-09-06 02:14:52,0.01,0.33,0.00,24.62,28.11,30.51,13.68,44.21,1007.83,2029.05,3397.07,2998.00,3414.99,599.73,587.35,36.73,0000 0000 0000 0000 000000
2017-09-06 02:19:53,0.01,0.33,0.00,24.63,28.10,30.52,13.61,44.15,1007.83,2029.03,3396.85,2997.92,3414.47,599.88,587.56,36.78,0000 0000 0000 0000 000000
2017-09-06 02:24:55,0.02,0.33,0.00,24.59,28.10,30.51,13.68,44.21,1007.83,2029.02,3396.23,2997.52,3414.02,599.84,587.57,36.83,0000 0000 0000 0000 000000
2017-09-06 02:29:56,0.01,0.33,0.00,24.62,28.10,30.51,13.65,44.23,1007.83,2029.02,3395.99,2997.09,3413.99,600.00,587.75,36.88,0000 0000 0000 0000 000000
2017-09-06 02:34:57,0.02,0.33,0.00,24.62,28.10,30.52,13.70,44.23,1007.83,2029.03,3395.59,2997.00,3413.68,600.13,587.73,36.93,0000 0000 0000 0000 000000
2017-09-06 02:39:58,0.00,0.33,0.00,24.59,28.10,30.51,13.65,44.32,1007.83,2029.01,3395.04,2996.99,3413.10,599.95,587.74,36.99,0000 0000 0000 0000 000000
2017-09-06 02:45:00,0.00,0.33,0.00,24.59,28.09,30.51,13.67,44.19,1007.83,2029.04,3394.99,2996.97,3413.00,599.78,587.35,37.04,0000 0000 0000 0000 000000
2017-09-06 02:50:01,0.02,0.33,0.00,24.58,28.09,30.51,13.72,44.32,1007.83,2029.05,3394.63,2996.74,3412.96,600.26,587.93,37.09,0000 0000 0000 0000 000000
2017-09-06 02:55:02,0.03,0.34,0.00,24.61,28.07,30.50,13.66,44.44,1007.83,2029.03,3394.02,2996.10,3412.39,599.98,587.75,37.14,0000 0000 0000 0000 000000
2017-09-06 03:00:03,0.01,0.34,0.00,24.58,28.07,30.49,13.68,44.22,1007.83,2029.09,3393.98,2996.02,3412.02,599.82,587.60,37.19,0000 0000 0000 0000 000000
2017-09-06 03:05:04,0.01,0.34,0.00,24.59,28.07,30.48,13.71,44.26,1007.83,2029.06,3393.51,2996.00,3412.00,600.01,587.78,37.24,0000 0000 0000 0000 000000
2017-09-06 03:10:06,0.00,0.34,0.00,24.59,28.07,30.49,13.71,44.23,1007.83,2029.11,3393.01,2995.98,3411.89,600.14,587.79,37.29,0000 0000 0000 0000 000000
2017-09-06 03:15:07,0.02,0.34,0.00,24.58,28.07,30.47,13.73,44.20,1007.83,2029.15,3392.91,2995.89,3411.17,600.22,587.99,37.34,0000 0000 0000 0000 000000
2017-09-06 03:20:08,0.03,0.34,0.00,24.56,28.07,30.48,13.63,44.22,1007.83,2029.13,3392.16,2995.31,3411.00,599.92,587.66,37.39,0000 0000 0000 0000 000000
2017-09-06 03:25:10,0.01,0.34,0.00,24.57,28.06,30.48,13.73,44.17,1007.83,2029.24,3391.99,2995.02,3410.93,600.25,588.00,37.44,0000 0000 0000 0000 000000
2017-09-06 03:30:11,0.00,0.34,0.00,24.57,28.05,30.48,13.62,44.21,1007.84,2029.19,3391.84,2995.00,3410.48,599.90,587.66,37.49,0000 0000 0000 0000 000000
2017-09-06 03:35:12,0.04,0.34,0.00,24.58,28.05,30.47,13.58,44.27,1007.85,2029.44,3391.08,2994.99,3410.06,599.53,587.25,37.54,0000 0000 0000 0000 000000
2017-09-06 03:40:13,-0.01,0.34,0.00,24.59,28.05,30.46,13.74,44.27,1007.90,2029.43,3391.00,2994.96,3409.99,600.18,587.94,37.59,0000 0000 0000 0000 000000
2017-09-06 03:45:14,0.02,0.34,0.00,24.57,28.05,30.47,13.73,44.23,1007.97,2029.33,3390.88,2994.66,3409.85,600.08,588.00,37.64,0000 0000 0000 0000 000000
2017-09-06 03:50:16,0.02,0.34,0.00,24.57,28.05,30.47,13.63,44.23,1007.98,2029.29,3390.24,2994.09,3409.28,599.85,587.73,37.69,0000 0000 0000 0000 000000
2017-09-06 03:55:17,0.05,0.35,0.00,24.58,28.05,30.47,13.70,44.21,1008.05,2029.61,3390.00,2994.01,3409.00,599.99,587.93,37.74,0000 0000 0000 0000 000000
2017-09-06 04:00:18,0.00,0.35,0.00,24.55,28.04,30.46,13.69,44.22,1008.09,2029.77,3389.92,2994.00,3408.99,599.99,588.04,37.80,0000 0000 0000 0000 000000
2017-09-06 04:05:20,0.02,0.35,0.00,24.54,28.04,30.46,13.79,44.37,1008.14,2029.82,3389.22,2993.99,3408.75,600.44,588.43,37.85,0000 0000 0000 0000 000000
2017-09-06 04:10:21,0.01,0.35,0.00,24.55,28.03,30.46,13.67,44.30,1008.13,2029.75,3389.00,2993.89,3408.09,599.78,587.90,37.90,0000 0000 0000 0000 000000
2017-09-06 04:15:22,0.01,0.35,0.00,24.55,28.02,30.45,13.67,44.32,1008.19,2029.84,3388.83,2993.52,3408.00,599.96,587.90,37.95,0000 0000 0000 0000 000000
2017-09-06 04:20:23,0.02,0.35,0.00,24.54,28.02,30.45,13.61,44.19,1008.19,2029.82,3388.13,2993.09,3407.96,599.97,587.95,38.00,0000 0000 0000 0000 000000
2017-09-06 04:25:25,0.02,0.35,0.00,24.53,28.02,30.46,13.66,44.20,1008.22,2029.88,3388.00,2993.00,3407.51,600.01,588.04,38.05,0000 0000 0000 0000 000000
2017-09-06 04:30:26,0.00,0.35,0.00,24.54,28.02,30.45,13.73,44.28,1008.24,2029.86,3387.82,2993.00,3407.03,600.22,588.22,38.10,0000 0000 0000 0000 000000
2017-09-06 04:35:27,0.01,0.35,0.00,24.55,28.02,30.44,13.63,44.14,1008.28,2029.93,3387.23,2992.99,3407.00,599.73,587.79,38.15,0000 0000 0000 0000 000000
2017-09-06 04:40:29,0.00,0.35,0.00,24.55,28.02,30.44,13.68,44.22,1008.30,2029.93,3387.01,2992.94,3406.98,600.21,588.29,38.20,0000 0000 0000 0000 000000
2017-09-06 04:45:30,0.01,0.35,0.00,24.55,28.02,30.44,13.66,44.31,1008.29,2029.95,3386.98,2992.83,3406.81,600.00,588.13,38.25,0000 0000 0000 0000 000000
2017-09-06 04:50:31,0.02,0.36,0.00,24.56,28.02,30.43,13.67,44.36,1008.30,2029.96,3386.76,2992.54,3406.35,599.97,588.00,38.30,0000 0000 0000 0000 000000
2017-09-06 04:55:33,0.02,0.36,0.00,24.54,28.00,30.45,13.76,44.35,1008.30,2029.99,3386.07,2992.08,3406.03,600.21,588.13,38.35,0000 0000 0000 0000 000000
2017-09-06 05:00:34,0.00,0.36,0.00,24.53,28.00,30.44,13.70,44.28,1008.31,2029.99,3385.98,2992.00,3406.00,599.76,587.89,38.40,0000 0000 0000 0000 000000
2017-09-06 05:05:35,0.01,0.36,0.00,24.54,28.00,30.42,13.77,44.45,1008.31,2029.98,3385.50,2992.00,3405.83,600.22,588.25,38.45,0000 0000 0000 0000 000000
2017-09-06 05:10:37,0.01,0.36,0.00,24.52,28.00,30.42,13.67,44.46,1008.31,2029.98,3385.01,2992.00,3405.15,599.97,588.18,38.50,0000 0000 0000 0000 000000
2017-09-06 05:15:38,0.00,0.36,0.00,24.53,28.00,30.42,13.71,44.40,1008.31,2029.99,3385.00,2991.98,3405.02,600.02,588.13,38.55,0000 0000 0000 0000 000000
2017-09-06 05:20:40,0.01,0.36,0.00,24.51,28.00,30.43,13.78,44.32,1008.31,2029.99,3384.93,2991.83,3404.99,600.18,588.33,38.60,0000 0000 0000 0000 000000
2017-09-06 05:25:41,0.01,0.36,0.00,24.52,28.00,30.42,13.71,44.27,1008.32,2029.99,3384.56,2991.68,3404.99,600.13,588.24,38.65,0000 0000 0000 0000 000000
2017-09-06 05:30:42,0.02,0.36,0.00,24.52,28.00,30.41,13.64,44.29,1008.33,2029.99,3384.07,2991.25,3404.97,599.81,588.03,38.70,0000 0000 0000 0000 000000
2017-09-06 05:35:43,0.01,0.36,0.00,24.52,27.99,30.41,13.63,44.27,1008.33,2029.99,3384.00,2991.04,3404.60,599.73,588.02,38.76,0000 0000 0000 0000 000000
2017-09-06 05:40:45,0.00,0.36,0.00,24.52,27.99,30.41,13.67,44.27,1008.33,2029.99,3383.99,2991.03,3404.18,600.00,588.15,38.81,0000 0000 0000 0000 000000
2017-09-06 05:45:46,0.00,0.36,0.00,24.52,27.98,30.42,13.67,44.24,1008.34,2029.99,3383.97,2991.00,3404.03,599.77,587.88,38.86,0000 0000 0000 0000 000000
2017-09-06 05:50:47,0.01,0.36,0.00,24.53,27.97,30.41,13.73,44.32,1008.40,2029.99,3383.35,2991.00,3404.00,600.04,588.27,38.91,0000 0000 0000 0000 000000
2017-09-06 05:55:48,0.00,0.36,0.00,24.50,27.97,30.40,13.67,44.27,1008.45,2029.99,3383.00,2990.97,3403.98,600.13,588.16,38.96,0000 0000 0000 0000 000000
2017-09-06 06:00:49,0.00,0.36,0.00,24.50,27.97,30.40,13.68,44.28,1008.64,2029.99,3383.00,2990.95,3403.90,599.74,588.08,39.01,0000 0000 0000 0000 000000
2017-09-06 06:05:50,0.02,0.36,0.00,24.49,27.97,30.40,13.64,44.37,1008.72,2029.99,3382.86,2990.66,3403.34,600.03,588.50,39.06,0000 0000 0000 0000 000000
2017-09-06 06:10:52,0.02,0.36,0.00,24.52,27.97,30.39,13.68,44.28,1008.76,2029.99,3382.44,2990.29,3403.04,599.87,588.28,39.11,0000 0000 0000 0000 000000
2017-09-06 06:15:53,0.00,0.37,0.00,24.52,27.97,30.39,13.69,44.38,1008.80,2029.99,3382.02,2990.07,3403.00,599.98,588.35,39.16,0000 0000 0000 0000 000000
2017-09-06 06:20:55,0.00,0.37,0.00,24.51,27.97,30.39,13.69,44.37,1008.80,2029.99,3382.00,2990.02,3403.00,600.01,588.45,39.21,0000 0000 0000 0000 000000
2017-09-06 06:25:56,0.00,0.37,0.00,24.51,27.96,30.38,13.65,44.25,1008.80,2029.99,3381.97,2990.00,3402.97,599.81,588.27,39.26,0000 0000 0000 0000 000000
2017-09-06 06:30:57,0.02,0.37,0.00,24.51,27.96,30.39,13.72,44.21,1008.80,2029.99,3381.48,2990.00,3402.49,600.03,588.52,39.31,0000 0000 0000 0000 000000
2017-09-06 06:35:58,0.00,0.37,0.00,24.48,27.95,30.39,13.64,44.27,1008.80,2029.99,3381.06,2989.99,3402.09,599.73,588.35,39.36,0000 0000 0000 0000 000000
2017-09-06 06:41:00,0.00,0.37,0.00,24.50,27.95,30.39,13.73,44.31,1008.83,2029.99,3381.00,2989.91,3402.00,599.98,588.41,39.41,0000 0000 0000 0000 000000
2017-09-06 06:46:01,0.01,0.37,0.00,24.48,27.95,30.38,13.73,44.28,1008.84,2029.99,3380.89,2989.60,3401.99,600.11,588.64,39.46,0000 0000 0000 0000 000000
2017-09-06 06:51:02,0.02,0.37,0.00,24.49,27.95,30.36,13.61,44.38,1008.87,2029.98,3380.27,2989.13,3401.65,600.14,588.77,39.51,0000 0000 0000 0000 000000
2017-09-06 06:56:04,0.01,0.37,0.00,24.49,27.95,30.38,13.71,44.38,1009.04,2029.99,3380.02,2989.02,3401.10,600.04,588.66,39.56,0000 0000 0000 0000 000000
2017-09-06 07:01:05,0.00,0.37,0.00,24.47,27.95,30.37,13.72,44.39,1009.23,2029.99,3379.99,2989.00,3401.01,600.01,588.86,39.61,0000 0000 0000 0000 000000
2017-09-06 07:06:06,0.01,0.37,0.00,24.47,27.94,30.38,13.70,44.42,1009.28,2029.99,3379.67,2988.99,3400.97,599.71,588.66,39.67,0000 0000 0000 0000 000000
2017-09-06 07:11:08,0.01,0.37,0.00,24.47,27.93,30.38,13.67,44.26,1009.29,2029.98,3379.09,2988.96,3400.72,600.17,588.98,39.72,0000 0000 0000 0000 000000
2017-09-06 07:16:09,0.01,0.37,0.00,24.47,27.92,30.38,13.70,44.35,1009.29,2029.98,3379.00,2988.62,3400.07,599.77,588.59,39.77,0000 0000 0000 0000 000000
2017-09-06 07:21:10,0.01,0.37,0.00,24.46,27.92,30.38,13.66,44.34,1009.29,2029.99,3378.85,2988.21,3400.01,599.86,588.79,39.82,0000 0000 0000 0000 000000
2017-09-06 07:26:12,0.01,0.37,0.00,24.45,27.92,30.37,13.73,44.34,1009.29,2029.99,3378.16,2988.06,3400.00,600.11,588.89,39.87,0000 0000 0000 0000 000000
2017-09-06 07:31:12,0.00,0.37,0.00,24.45,27.92,30.37,13.74,44.33,1009.29,2029.99,3378.01,2988.01,3399.96,600.06,588.91,39.92,0000 0000 0000 0000 000000
2017-09-06 07:36:14,0.01,0.37,0.00,24.46,27.92,30.37,13.71,44.36,1009.32,2029.99,3377.99,2988.00,3399.44,600.08,588.87,39.97,0000 0000 0000 0000 000000
2017-09-06 07:41:15,0.01,0.37,0.00,24.45,27.92,30.36,13.65,44.21,1009.34,2029.99,3377.48,2988.00,3399.02,599.71,588.61,40.02,0000 0000 0000 0000 000000
2017-09-06 07:46:16,0.00,0.38,0.00,24.47,27.92,30.36,13.72,44.29,1009.33,2029.99,3377.03,2987.98,3399.00,599.84,588.65,40.07,0000 0000 0000 0000 000000
2017-09-06 07:51:17,0.00,0.38,0.00,24.46,27.91,30.35,13.76,44.36,1009.33,2029.99,3377.00,2987.89,3398.98,600.17,589.07,40.12,0000 0000 0000 0000 000000
2017-09-06 07:56:18,0.03,0.38,0.00,24.44,27.90,30.36,13.69,44.33,1009.33,2029.99,3376.74,2987.43,3398.52,599.68,588.58,40.17,0000 0000 0000 0000 000000
2017-09-06 08:01:19,0.01,0.38,0.00,24.44,27.90,30.36,13.70,44.40,1009.33,2029.99,3376.08,2987.10,3398.05,599.92,588.82,40.22,0000 0000 0000 0000 000000
2017-09-06 08:06:21,0.00,0.38,0.00,24.44,27.90,30.36,13.71,44.52,1009.35,2029.99,3376.00,2987.02,3398.01,599.84,588.61,40.27,0000 0000 0000 0000 000000
2017-09-06 08:11:22,0.00,0.38,0.00,24.42,27.90,30.35,13.71,44.70,1009.44,2029.99,3375.78,2987.00,3397.97,600.45,589.31,40.32,0000 0000 0000 0000 000000
2017-09-06 08:16:23,0.02,0.38,0.00,24.44,27.90,30.35,13.67,44.67,1009.65,2029.99,3375.07,2986.96,3397.44,599.38,588.46,40.37,0000 0000 0000 0000 000000
2017-09-06 08:21:24,0.01,0.38,0.00,24.42,27.90,30.36,13.78,44.74,1009.76,2029.99,3375.00,2986.75,3397.03,600.60,589.72,40.42,0000 0000 0000 0000 000000
2017-09-06 08:26:26,0.01,0.38,0.00,24.41,27.90,30.35,13.63,44.33,1009.77,2029.99,3374.90,2986.46,3397.00,599.30,588.50,40.47,0000 0000 0000 0000 000000
2017-09-06 08:31:27,0.02,0.38,0.00,24.40,27.89,30.35,13.73,44.20,1009.78,2030.00,3374.18,2986.13,3396.97,600.28,589.56,40.52,0000 0000 0000 0000 000000
2017-09-06 08:36:28,0.01,0.38,0.00,24.42,27.89,30.35,13.68,44.42,1009.78,2030.00,3373.99,2986.00,3396.35,599.87,589.13,40.57,0000 0000 0000 0000 000000
2017-09-06 08:41:30,0.00,0.38,0.00,24.41,27.88,30.36,13.71,44.34,1009.78,2030.00,3373.71,2986.00,3396.02,599.83,589.06,40.62,0000 0000 0000 0000 000000
2017-09-06 08:46:31,0.00,0.38,0.00,24.42,27.87,30.35,13.69,44.33,1009.79,2030.00,3373.14,2985.98,3396.00,599.66,588.85,40.68,0000 0000 0000 0000 000000
2017-09-06 08:51:32,0.00,0.38,0.00,24.40,27.87,30.34,13.63,44.27,1009.79,2030.02,3372.99,2985.93,3395.97,599.71,588.98,40.73,0000 0000 0000 0000 000000
2017-09-06 08:56:34,0.03,0.38,0.00,24.39,27.87,30.33,13.65,44.34,1009.80,2030.00,3372.86,2985.53,3395.47,600.05,589.35,40.78,0000 0000 0000 0000 000000
2017-09-06 09:01:35,0.02,0.39,0.00,24.39,27.87,30.33,13.72,44.44,1009.81,2030.01,3372.17,2985.07,3395.04,599.92,589.20,40.83,0000 0000 0000 0000 000000
2017-09-06 09:06:36,0.00,0.39,0.00,24.41,27.87,30.33,13.77,44.25,1009.98,2030.01,3372.00,2985.01,3395.00,599.87,589.35,40.88,0000 0000 0000 0000 000000
2017-09-06 09:11:37,0.00,0.39,0.00,24.41,27.87,30.34,13.73,44.25,1009.94,2030.01,3371.84,2985.00,3394.92,599.89,589.21,40.93,0000 0000 0000 0000 000000
2017-09-06 09:16:38,0.02,0.39,0.00,24.40,27.87,30.33,13.74,44.25,1010.06,2030.02,3371.12,2984.99,3394.29,600.05,589.34,40.98,0000 0000 0000 0000 000000
2017-09-06 09:21:40,0.00,0.39,0.00,24.38,27.87,30.32,13.73,44.34,1010.08,2030.01,3371.00,2984.85,3394.02,600.00,589.43,41.03,0000 0000 0000 0000 000000
2017-09-06 09:26:41,0.02,0.39,0.00,24.35,27.86,30.32,13.67,44.34,1010.15,2030.01,3370.75,2984.29,3393.99,599.90,589.40,41.08,0000 0000 0000 0000 000000
2017-09-06 09:31:42,0.02,0.39,0.00,24.35,27.85,30.33,13.69,44.34,1010.26,2030.04,3370.15,2984.05,3393.83,599.68,589.29,41.13,0000 0000 0000 0000 000000
2017-09-06 09:36:43,0.01,0.39,0.00,24.37,27.85,30.32,13.70,44.32,1010.27,2030.01,3370.00,2984.00,3393.17,600.02,589.62,41.18,0000 0000 0000 0000 000000
2017-09-06 09:41:44,0.00,0.39,0.00,24.37,27.85,30.32,13.72,44.29,1010.27,2030.03,3369.92,2984.00,3393.02,599.82,589.40,41.23,0000 0000 0000 0000 000000
2017-09-06 09:46:46,0.01,0.39,0.00,24.35,27.85,30.32,13.75,44.43,1010.27,2030.04,3369.33,2983.99,3393.00,600.04,589.73,41.28,0000 0000 0000 0000 000000
2017-09-06 09:51:47,0.01,0.39,0.00,24.35,27.85,30.32,13.74,44.39,1010.27,2030.08,3368.88,2983.89,3392.88,600.20,589.76,41.33,0000 0000 0000 0000 000000
2017-09-06 09:56:48,0.07,0.40,0.00,24.36,27.85,30.33,13.74,44.24,1010.28,2030.05,3367.20,2982.95,3391.46,600.13,589.73,41.38,0000 0000 0000 0000 000000
2017-09-06 10:01:49,0.02,0.40,0.00,24.36,27.85,30.31,13.68,44.17,1010.28,2030.03,3366.98,2982.29,3391.02,599.82,589.50,41.43,0000 0000 0000 0000 000000
2017-09-06 10:06:50,0.01,0.40,0.00,24.34,27.85,30.31,13.67,44.27,1010.31,2030.05,3366.61,2982.02,3391.00,600.08,589.73,41.48,0000 0000 0000 0000 000000
2017-09-06 10:11:51,0.01,0.40,0.00,24.34,27.84,30.31,13.76,44.35,1010.37,2030.09,3366.05,2982.00,3390.98,600.22,589.86,41.53,0000 0000 0000 0000 000000
2017-09-06 10:16:53,0.00,0.40,0.00,24.36,27.84,30.31,13.66,44.36,1010.42,2030.05,3365.99,2981.99,3390.68,599.74,589.55,41.58,0000 0000 0000 0000 000000
2017-09-06 10:21:54,0.01,0.40,0.00,24.35,27.83,30.31,13.71,44.36,1010.61,2030.06,3365.84,2981.97,3390.06,599.82,589.63,41.64,0000 0000 0000 0000 000000
2017-09-06 10:26:55,0.01,0.40,0.00,24.36,27.82,30.29,13.73,44.27,1010.71,2030.07,3365.23,2981.86,3390.00,599.70,589.61,41.69,0000 0000 0000 0000 000000
2017-09-06 10:31:56,0.02,0.40,0.00,24.36,27.82,30.30,13.72,44.37,1010.71,2030.08,3365.00,2981.37,3389.98,599.92,589.78,41.74,0000 0000 0000 0000 000000
2017-09-06 10:36:57,0.01,0.40,0.00,24.35,27.82,30.30,13.76,44.34,1010.74,2030.10,3364.94,2981.05,3389.72,600.32,590.22,41.79,0000 0000 0000 0000 000000
2017-09-06 10:41:58,0.01,0.40,0.00,24.37,27.82,30.29,13.72,44.31,1010.74,2030.08,3364.26,2981.00,3389.06,600.04,589.91,41.84,0000 0000 0000 0000 000000
2017-09-06 10:47:00,0.00,0.40,0.00,24.37,27.82,30.29,13.73,44.23,1010.75,2030.07,3364.00,2981.00,3388.99,600.01,589.87,41.89,0000 0000 0000 0000 000000
2017-09-06 10:52:01,0.01,0.40,0.00,24.36,27.82,30.29,13.78,44.41,1010.72,2030.10,3363.68,2980.91,3388.89,600.29,590.14,41.94,0000 0000 0000 0000 000000
2017-09-06 10:57:02,0.02,0.41,0.00,24.36,27.82,30.30,13.71,44.37,1010.72,2030.14,3363.05,2980.63,3388.36,600.05,589.84,41.99,0000 0000 0000 0000 000000
2017-09-06 11:02:03,0.01,0.41,0.00,24.36,27.82,30.29,13.72,44.31,1010.72,2030.16,3363.00,2980.30,3388.05,600.12,589.95,42.04,0000 0000 0000 0000 000000
2017-09-06 11:07:05,0.01,0.41,0.00,24.34,27.82,30.28,13.78,44.40,1010.66,2030.16,3362.87,2980.02,3388.00,600.22,590.04,42.09,0000 0000 0000 0000 000000
2017-09-06 11:12:06,0.01,0.41,0.00,24.33,27.82,30.29,13.80,44.28,1010.71,2030.14,3362.19,2980.00,3387.94,600.22,590.16,42.14,0000 0000 0000 0000 000000
2017-09-06 11:17:07,0.01,0.41,0.00,24.33,27.82,30.30,13.74,44.38,1010.74,2030.11,3362.00,2979.99,3387.47,600.01,589.97,42.19,0000 0000 0000 0000 000000
2017-09-06 11:22:08,0.00,0.41,0.00,24.33,27.81,30.30,13.74,44.38,1010.73,2030.07,3361.83,2979.89,3387.03,599.85,589.73,42.24,0000 0000 0000 0000 000000
2017-09-06 11:27:10,0.02,0.41,0.00,24.31,27.80,30.28,13.71,44.42,1010.73,2030.11,3361.24,2979.66,3387.00,599.72,589.70,42.29,0000 0000 0000 0000 000000
2017-09-06 11:32:11,0.01,0.41,0.00,24.31,27.80,30.28,13.74,44.41,1010.73,2030.10,3361.01,2979.11,3386.91,600.26,590.20,42.34,0000 0000 0000 0000 000000
2017-09-06 11:37:12,0.01,0.41,0.00,24.32,27.80,30.29,13.74,44.45,1010.74,2030.12,3360.96,2979.01,3386.41,600.11,590.01,42.39,0000 0000 0000 0000 000000
2017-09-06 11:42:13,0.02,0.41,0.00,24.32,27.80,30.29,13.75,44.42,1010.69,2030.11,3360.42,2979.00,3386.04,600.11,590.22,42.44,0000 0000 0000 0000 000000
2017-09-06 11:47:14,0.02,0.41,0.00,24.32,27.80,30.29,13.74,44.48,1010.71,2030.27,3360.05,2978.99,3386.00,599.76,589.75,42.50,0000 0000 0000 0000 000000
2017-09-06 11:52:16,0.02,0.41,0.00,24.31,27.80,30.28,13.81,44.39,1010.74,2030.55,3360.00,2978.99,3385.99,600.30,590.32,42.55,0000 0000 0000 0000 000000
2017-09-06 11:57:17,0.02,0.42,0.00,24.30,27.80,30.29,13.74,44.41,1010.73,2030.81,3359.92,2978.94,3385.88,600.03,590.06,42.60,0000 0000 0000 0000 000000
2017-09-06 12:02:18,0.00,0.42,0.00,24.32,27.80,30.27,13.72,44.34,1010.73,2030.51,3359.17,2978.52,3385.17,599.81,589.76,42.65,0000 0000 0000 0000 000000
2017-09-06 12:07:20,0.01,0.42,0.00,24.31,27.80,30.27,13.74,44.53,1010.72,2030.39,3359.00,2978.06,3385.00,599.76,589.72,42.70,0000 0000 0000 0000 000000
2017-09-06 12:12:21,0.01,0.42,0.00,24.31,27.79,30.27,13.76,44.39,1010.73,2030.47,3358.89,2978.01,3385.00,599.85,589.84,42.75,0000 0000 0000 0000 000000
2017-09-06 12:17:23,0.00,0.42,0.00,24.30,27.78,30.27,13.74,44.42,1010.74,2030.32,3358.14,2978.00,3384.78,599.86,589.68,42.80,0000 0000 0000 0000 000000
2017-09-06 12:22:24,0.02,0.42,0.00,24.28,27.77,30.26,13.75,44.38,1010.73,2030.44,3358.00,2977.97,3384.12,600.10,590.11,42.85,0000 0000 0000 0000 000000
2017-09-06 12:27:25,0.01,0.42,0.00,24.29,27.77,30.28,13.74,44.40,1010.74,2030.46,3357.96,2977.92,3384.00,600.11,590.09,42.90,0000 0000 0000 0000 000000
2017-09-06 12:32:27,0.05,0.42,0.00,24.29,27.77,30.28,13.69,44.48,1010.73,2030.66,3357.30,2977.40,3384.00,599.74,589.76,42.95,0000 0000 0000 0000 000000
2017-09-06 12:37:28,0.02,0.42,0.00,24.27,27.77,30.27,13.70,44.44,1010.72,2030.89,3357.04,2977.19,3383.99,600.04,590.08,43.00,0000 0000 0000 0000 000000
2017-09-06 12:42:29,0.01,0.42,0.00,24.28,27.77,30.26,13.74,44.50,1010.73,2030.88,3357.00,2977.05,3383.64,599.93,589.96,43.05,0000 0000 0000 0000 000000
2017-09-06 12:47:31,0.01,0.42,0.00,24.27,27.77,30.26,13.77,44.42,1010.75,2030.88,3356.91,2977.00,3383.06,600.02,590.08,43.10,0000 0000 0000 0000 000000
2017-09-06 12:52:32,0.00,0.42,0.00,24.28,27.77,30.26,13.71,44.45,1010.75,2030.73,3356.20,2976.99,3383.00,600.20,590.26,43.15,0000 0000 0000 0000 000000
2017-09-06 12:57:33,0.01,0.42,0.00,24.28,27.77,30.26,13.75,44.40,1010.76,2030.82,3356.01,2976.94,3382.97,600.05,590.22,43.20,0000 0000 0000 0000 000000